{"data":{"norad_id":65449,"epoch":"2026-05-25T02:58:24.165984Z","epoch_age_seconds":58147,"freshness":"FRESH","line1":"1 65449U 25194R   26145.12389081  .00001954  00000+0  13942-3 0  9999","line2":"2 65449  97.4497 359.4279 0002662  90.0023 270.1509 15.05654431 41158","mean_motion":15.05654431,"eccentricity":0.0002662,"inclination_deg":97.4497,"raan_deg":359.4279,"arg_perigee_deg":90.0023,"mean_anomaly_deg":270.1509,"bstar":0.00013942,"rev_number":4115,"period_min":95.639475456769,"perigee_km":547.65342609872,"apogee_km":551.34169873975,"semimajor_km":6927.6345624192,"source":"CELESTRAK","updated_at":"2026-05-25T13:38:20.809086Z"}}